Theta_e
317 318 319 319 320 320 321 321 321 319 316 312 312 313 314 314 316 317 318 320 328 335 340 348 356 353 355 347 347 345 351 354 352 349 352 349 349 348 343 343 347 347 346 346 347
319 320 320 321 321 321 321 321 321 321 319 313 312 313 313 314 319 319 318 323 329 333 339 335 338 346 352 348 349 350 354 354 352 349 349 348 349 347 343 348 352 350 348 347 346
321 321 321 322 321 321 321 321 321 321 321 314 312 313 313 315 319 317 323 322 333 332 330 328 344 341 348 346 348 350 350 352 351 347 346 348 349 348 345 348 350 350 350 348 347
321 321 321 322 321 321 321 321 321 322 321 315 312 314 313 319 318 320 322 320 335 327 325 329 335 342 347 348 347 350 350 351 350 347 348 349 348 350 346 348 346 346 347 347 348
320 321 321 321 321 321 321 321 322 322 319 313 313 313 316 317 317 321 324 322 336 325 324 329 336 341 341 347 347 348 350 348 349 350 348 349 349 350 347 347 346 346 346 347 346
320 320 320 321 321 321 321 321 320 320 316 312 314 313 318 317 315 322 326 331 334 323 322 325 336 337 344 347 348 347 348 346 346 348 348 348 349 349 348 348 348 347 346 346 346
319 319 320 320 320 321 321 321 320 316 313 315 315 316 317 317 323 323 321 324 321 321 323 323 332 335 342 347 344 344 347 345 346 347 346 343 350 351 348 349 350 348 348 348 348
319 319 319 320 320 320 321 321 318 313 318 318 317 318 317 315 317 321 321 321 323 320 321 322 329 338 343 343 343 347 345 351 345 346 347 343 350 349 349 351 351 350 350 350 349
318 318 319 320 320 320 321 321 320 320 318 316 319 317 318 319 323 321 320 321 320 320 321 323 328 340 341 344 344 345 349 347 346 345 346 346 349 349 348 350 352 351 351 351 351
318 318 318 319 320 321 321 323 323 326 326 325 325 320 320 324 323 323 323 320 322 321 323 325 328 340 340 343 343 344 346 344 347 346 347 347 346 350 346 349 352 351 351 351 351
317 317 318 319 319 321 319 317 321 321 321 325 324 320 321 324 324 323 321 319 319 321 324 323 330 338 340 342 338 339 341 343 342 344 348 349 348 351 349 347 348 350 351 351 350
316 317 317 319 319 321 320 320 320 321 325 321 320 320 321 323 326 325 319 322 321 322 321 325 330 333 337 335 334 337 336 336 338 349 349 347 347 347 350 350 348 348 347 349 349
314 315 316 319 319 320 319 318 319 320 322 323 320 322 323 324 325 326 320 319 321 320 321 326 325 325 334 333 335 335 336 335 335 344 346 346 346 347 347 350 349 348 347 346 346
313 313 314 317 319 318 320 319 321 319 326 327 326 325 325 325 326 326 319 321 319 321 320 323 320 326 331 336 335 339 333 332 337 336 334 342 345 346 344 349 349 349 348 347 346
311 312 313 313 316 319 320 320 319 317 331 328 324 323 325 326 324 325 316 320 321 320 321 322 320 324 329 332 330 336 331 333 337 337 340 342 344 345 344 346 350 348 347 347 346
311 312 313 315 315 318 321 321 316 323 327 329 325 326 327 325 324 320 320 320 319 320 319 322 319 321 323 325 328 330 336 338 339 341 338 341 343 342 343 344 345 346 347 346 345
312 313 315 314 320 320 321 317 321 320 323 331 327 327 325 326 326 323 323 321 323 322 322 321 321 320 320 323 324 327 328 333 337 338 335 335 343 342 342 337 339 340 347 347 345
312 313 316 317 319 321 318 322 321 319 329 328 324 324 326 325 325 324 323 323 318 321 322 323 321 321 320 323 324 326 327 328 329 334 334 334 340 336 333 341 341 343 344 347 347
313 317 320 321 323 320 322 323 321 319 327 323 325 327 326 324 324 324 325 325 324 320 322 323 323 319 319 320 324 324 327 327 329 325 333 334 336 331 338 343 344 343 345 346 347
317 317 320 321 321 316 323 320 320 321 324 324 328 325 327 325 325 324 324 324 324 321 322 322 324 320 319 321 320 324 323 326 327 334 333 331 333 332 336 343 345 346 345 343 343
317 325 322 321 315 321 325 323 321 321 323 325 325 324 324 326 324 323 323 323 322 319 319 319 320 322 319 322 324 323 324 323 326 327 327 328 328 333 338 343 346 346 343 342 343
316 325 322 321 323 317 322 321 319 323 323 326 324 326 325 325 325 323 325 324 319 319 322 321 321 323 323 318 319 322 325 325 326 328 329 331 328 332 342 345 343 345 342 346 347
318 321 322 321 328 324 322 323 322 327 328 328 327 323 323 326 330 326 324 321 317 321 322 319 322 323 324 322 320 323 321 322 324 326 336 331 329 341 346 346 346 346 344 353 351
319 328 327 323 320 325 329 331 330 328 328 329 331 328 326 328 326 330 326 321 318 321 336 324 319 324 326 326 325 324 321 321 324 327 329 331 330 336 347 347 346 344 352 357 356
317 326 324 332 329 331 330 329 331 331 332 332 332 328 328 332 332 328 327 324 322 337 323 323 323 322 322 327 327 333 323 322 324 326 326 327 331 332 347 347 346 348 357 360 357
322 323 323 328 326 328 325 330 332 333 333 335 332 332 333 334 334 335 334 330 326 325 322 321 330 330 332 335 338 342 341 327 323 326 332 339 337 344 348 347 350 357 360 361 360
317 318 322 324 329 328 329 332 333 332 332 331 332 333 335 334 331 330 331 331 327 324 323 324 329 333 333 336 336 337 341 339 332 334 331 333 338 348 349 350 356 359 362 361 360
Wind_Speed
21 21 23 22 21 23 23 25 23 24 23 21 18 17 19 20 15 6 5 3 6 8 5 5 5 4 5 2 2 2 3 3 3 4 7 9 6 3 6 13 5 4 8 16 25
22 23 23 25 25 26 26 24 25 24 24 20 17 16 18 20 10 5 3 5 7 8 5 3 2 3 3 2 3 4 3 4 3 3 7 9 9 8 8 11 5 12 17 26 26
23 25 26 27 26 27 26 25 25 23 23 19 16 14 15 15 3 2 0 10 12 7 5 2 3 2 3 4 4 3 4 4 6 6 6 10 7 2 14 7 7 16 21 23 24
24 26 27 28 27 28 26 28 25 24 22 16 13 13 13 5 5 2 3 14 16 7 4 1 1 2 3 4 1 4 5 5 2 4 7 8 8 5 8 3 13 20 24 23 18
24 26 28 28 28 30 30 29 27 24 17 12 9 10 4 1 4 4 3 17 17 9 3 1 3 2 4 3 3 5 5 5 1 5 7 6 7 5 6 10 20 20 21 19 17
27 29 30 30 31 31 32 31 25 19 12 6 3 4 2 3 3 1 5 12 11 7 3 2 1 2 5 4 4 2 5 4 3 3 4 2 6 7 5 16 20 21 19 17 17
29 30 32 32 34 34 35 23 23 13 4 1 1 0 0 7 1 7 2 7 6 5 2 2 2 1 3 3 2 3 3 3 4 2 3 2 5 2 15 17 21 19 17 16 17
30 32 33 33 34 36 24 26 11 4 2 2 2 2 5 2 4 9 5 4 5 7 3 2 4 6 3 5 3 4 3 2 1 3 2 1 1 7 16 18 19 19 16 16 16
30 32 34 33 34 35 25 12 5 5 4 5 2 1 5 5 2 5 10 3 5 2 1 4 3 3 4 3 2 4 2 1 3 5 3 1 1 10 15 17 17 17 17 16 16
30 33 34 33 35 27 23 3 4 3 3 3 2 2 3 2 3 2 5 6 2 4 4 2 3 4 3 4 1 3 2 2 3 2 6 4 3 11 16 17 18 18 17 17 16
31 33 34 32 35 18 18 2 3 1 2 4 2 3 5 8 4 2 4 6 3 2 6 2 6 12 12 11 3 4 2 1 4 2 4 5 5 12 16 16 15 17 17 17 18
30 32 34 30 30 13 9 5 6 2 8 6 9 8 7 3 3 1 8 9 5 8 5 5 12 12 6 9 6 3 2 3 1 1 4 2 8 13 17 21 20 20 19 19 18
28 29 32 29 17 11 5 9 3 6 4 5 3 3 3 10 5 4 11 5 5 7 9 11 3 6 9 7 8 7 8 2 2 1 1 7 5 5 13 15 16 18 18 19 19
28 27 30 31 3 17 2 1 19 8 3 2 0 1 4 4 4 4 9 6 3 12 7 5 1 9 9 13 10 12 0 3 2 2 3 3 5 3 6 13 20 20 20 19 19
27 27 26 25 15 6 2 16 5 3 2 5 1 2 4 5 7 3 4 3 9 7 6 6 9 8 10 10 9 6 6 5 3 2 3 2 4 2 1 6 15 18 21 21 20
28 25 27 10 14 9 10 15 4 2 1 3 2 2 5 0 2 4 5 4 3 5 2 3 2 6 7 7 10 11 6 5 4 1 4 1 3 5 2 2 2 8 18 19 19
27 26 24 15 4 9 15 2 1 3 2 3 3 2 4 5 3 4 9 10 6 6 7 4 5 1 3 9 4 5 5 3 3 4 4 1 4 9 8 7 9 6 14 18 18
28 24 12 13 12 6 5 2 3 0 2 2 3 2 7 7 6 4 10 11 2 4 5 9 8 8 7 6 8 12 11 5 6 4 4 2 5 4 1 3 4 5 5 13 16
25 12 6 4 7 6 2 2 2 3 2 7 6 3 5 5 4 6 7 15 12 10 6 7 5 2 4 4 5 6 6 1 5 2 3 1 5 9 0 1 3 2 7 10 14
16 8 3 11 5 4 1 2 2 4 3 1 2 1 1 3 6 8 8 7 11 14 8 4 6 2 4 4 6 5 11 5 0 4 6 4 6 7 8 3 2 1 0 3 7
5 2 11 9 2 1 3 4 4 6 5 2 2 3 3 1 5 5 4 4 10 10 7 7 2 5 4 8 11 5 4 4 3 2 6 9 9 7 8 2 3 3 3 2 4
6 1 2 5 1 1 3 3 2 3 3 3 2 6 3 2 4 7 10 8 11 14 13 7 1 4 6 3 1 3 6 9 6 6 1 4 8 1 3 3 3 3 2 3 2
4 3 2 2 2 2 2 3 3 2 2 1 3 6 3 3 3 6 5 3 15 16 13 10 5 3 5 2 1 3 4 5 4 3 7 8 7 3 2 5 4 3 4 4 4
2 1 0 2 1 1 2 1 3 3 4 4 4 4 3 4 4 3 3 0 11 8 6 15 5 7 4 3 4 5 6 8 11 6 7 8 13 8 7 8 6 2 2 3 5
1 2 3 1 2 1 2 2 4 4 1 2 3 5 3 3 4 3 2 4 2 8 6 9 11 5 3 1 2 3 9 14 13 11 10 13 11 9 8 10 7 5 3 7 8
2 2 3 3 4 2 3 3 3 2 2 2 3 9 5 4 5 10 9 5 2 6 10 5 4 5 3 6 2 4 3 8 10 5 7 4 8 3 6 9 8 8 8 11 11
2 1 1 2 2 3 2 1 2 5 3 7 9 12 12 11 7 13 17 18 9 5 10 11 8 5 4 5 4 4 3 5 5 5 6 8 4 11 10 12 11 10 9 12 11
Wind_Direction
13 12 9 7 5 1 358 353 349 346 342 337 338 335 335 335 338 303 249 238 181 170 209 154 197 179 174 119 103 203 87 78 91 164 132 144 140 74 114 130 93 27 135 140 151
11 9 8 7 3 358 354 350 346 341 338 333 334 333 335 334 337 251 257 185 179 167 196 178 78 65 109 76 35 33 59 61 66 70 155 153 147 130 145 138 72 86 110 136 151
9 8 4 0 357 354 350 344 339 335 334 329 328 329 334 336 294 151 319 182 170 182 250 74 104 48 69 53 17 39 38 81 52 54 135 155 148 116 152 173 173 152 144 151 160
5 2 358 355 353 350 345 340 334 329 327 323 324 326 332 345 176 350 327 184 174 192 241 58 12 51 74 78 63 99 66 86 98 72 114 141 158 145 174 87 152 155 153 157 169
360 356 355 354 350 346 342 337 327 321 319 317 323 331 351 329 256 344 42 172 176 191 248 21 322 53 50 87 123 76 113 78 20 133 95 146 193 170 181 120 136 147 156 168 174
357 355 353 351 348 345 341 333 326 319 310 302 323 332 27 258 294 211 118 161 180 194 226 202 285 76 88 68 58 43 95 103 80 111 80 110 125 131 147 138 143 155 168 172 180
353 352 350 348 347 344 341 336 327 321 307 240 167 39 168 249 133 156 78 179 228 197 251 233 139 338 104 114 96 77 98 63 48 80 82 86 149 183 152 155 153 165 170 177 186
350 349 347 346 347 343 344 337 345 23 79 134 149 107 251 189 220 240 232 219 207 207 265 343 108 100 53 125 62 58 67 36 326 178 97 238 63 137 161 161 167 171 177 181 190
347 347 344 345 346 343 346 341 19 62 93 113 86 77 267 304 233 230 218 219 169 202 141 102 73 77 134 132 85 46 357 297 303 201 131 228 5 157 174 172 172 183 186 190 194
343 343 342 343 345 346 349 50 49 61 74 73 91 262 251 165 323 283 206 175 138 122 106 80 68 145 131 191 297 140 206 227 283 148 202 174 218 173 183 182 182 188 193 197 201
340 340 339 341 344 348 1 336 319 169 344 256 254 285 294 308 295 177 171 154 118 114 183 80 195 190 184 209 126 131 161 248 279 297 216 249 229 201 192 193 192 193 196 203 204
335 336 336 338 340 360 25 64 88 12 302 260 259 259 266 330 313 206 163 170 179 182 138 172 214 203 194 160 175 185 241 261 244 93 222 257 259 207 198 208 201 193 198 207 213
333 334 333 336 341 1 54 120 350 307 266 301 219 213 199 182 220 220 178 141 148 161 189 211 192 177 201 178 196 225 250 171 357 101 211 306 286 168 207 217 222 222 208 201 206
336 335 333 338 2 340 326 132 330 175 304 290 297 105 149 187 202 197 179 165 140 192 162 238 150 183 187 211 203 227 15 170 165 319 339 331 309 259 183 216 219 216 214 213 208
335 335 331 338 303 299 302 329 336 178 342 354 92 77 132 204 128 167 169 109 171 159 183 189 170 170 208 208 197 216 63 67 96 113 246 183 260 275 215 245 227 220 219 214 209
332 330 327 329 303 283 314 331 157 263 292 32 119 168 174 159 114 120 167 75 99 128 183 174 163 190 203 191 198 149 92 73 78 17 244 93 280 274 262 320 239 218 213 215 210
328 323 314 290 248 300 323 269 221 220 352 32 23 177 206 174 140 145 168 185 181 176 194 197 216 192 182 148 146 179 172 205 212 215 263 60 229 262 286 318 285 275 204 204 205
324 322 310 272 272 278 327 197 212 297 294 342 321 211 199 175 198 143 164 191 151 145 164 197 208 189 173 202 179 196 212 205 222 210 228 134 238 277 332 318 305 228 194 192 199
328 328 326 333 309 186 192 204 230 203 326 332 315 196 192 202 221 190 192 207 203 187 208 171 232 173 210 157 177 153 198 200 119 63 242 200 267 268 232 267 29 206 191 189 200
331 332 333 328 153 148 176 248 250 223 298 267 301 345 235 178 185 197 181 193 198 198 211 181 202 168 136 131 63 211 142 170 159 190 238 211 272 261 286 232 331 318 262 258 225
339 326 356 119 70 109 200 234 245 244 218 237 268 297 273 251 210 198 205 220 207 176 188 162 254 146 179 206 169 150 176 72 112 330 256 261 257 232 242 226 284 20 354 340 249
332 172 74 350 151 7 195 209 269 265 218 251 249 241 245 276 228 220 216 231 168 162 176 182 164 228 189 77 352 182 179 189 220 201 251 282 257 120 192 237 244 321 351 14 309
350 293 338 283 189 193 269 264 269 275 281 280 256 225 194 256 266 222 204 244 167 163 166 172 208 199 169 126 55 219 173 188 165 143 193 232 244 144 193 215 206 290 355 53 72
333 283 95 84 36 352 3 317 286 273 264 261 275 256 258 246 237 276 264 194 197 217 160 163 166 214 196 146 130 179 183 190 212 204 190 230 259 227 194 187 167 201 29 47 95
356 51 2 146 130 352 275 326 300 308 259 285 256 249 347 305 311 245 282 301 125 163 155 181 209 183 223 280 189 250 192 183 207 216 203 235 224 281 182 172 159 146 137 96 92
8 18 354 298 301 241 182 208 251 301 284 294 266 334 323 272 275 300 325 301 253 189 174 194 179 162 137 155 178 201 175 197 208 224 250 221 257 156 150 130 152 150 141 114 101
347 292 297 325 316 232 187 192 184 352 240 268 306 319 299 290 314 270 283 260 275 233 189 175 154 168 195 174 269 238 206 204 204 213 234 219 249 160 164 155 155 151 154 127 119